Meteo Giornale » Osservazioni meteo Svizzera » Zurigo-Kloten

ore: 17:20 - Osservazioni Meteo Zurigo-Kloten
Lat. 47° 29' N Lon. 8° 32' E Alt. 436 metri s.l.m.

poco_nuvoloso Europe/Zurich

28 °C

Poco Nuvoloso

Temp. 24 Ore

14 °C

29 °C

Nord/Nord-Est

9.3 Km/h

Dew point 13 °C

Umidità 39 %

Visibilità  10 Km

Il sole sorge alle ore 05:51

Il sole tramonta alle ore 21:13

Data e Ora Cielo e Fenomeni T °C DP °C Um. % Pres. hPa Vis. km Vento km/h
Oggi h: 17:20 poco_nuvoloso Poco Nuvoloso 28 13 39 1014 10 N/NE 9.3
Oggi h: 16:50 poco_nuvoloso Poco Nuvoloso 28 14 42 1014 10 N 13
Oggi h: 16:20 poco_nuvoloso Poco Nuvoloso 28 15 45 1014 10 N 7.4
Oggi h: 15:50 poco_nuvoloso Poco Nuvoloso 29 13 37 1014 10 N 3.7
Oggi h: 15:20 poco_nuvoloso Poco Nuvoloso 29 13 37 1014 10 N 1.8
Oggi h: 14:20 poco_nuvoloso Poco Nuvoloso 27 16 50 1015 10 N 5.5
Oggi h: 13:50 poco_nuvoloso Poco Nuvoloso 27 16 50 1016 10 N 5.5
Oggi h: 13:20 poco_nuvoloso Poco Nuvoloso 26 17 57 1016 10 N 5.5
Oggi h: 12:50 poco_nuvoloso Poco Nuvoloso 26 16 54 1016 10 N 3.7
Oggi h: 12:20 poco_nuvoloso Poco Nuvoloso 25 16 57 1017 10 N 3.7
Oggi h: 11:50 sereno Sereno 24 15 57 1017 10 N 3.7
Oggi h: 11:20 sereno Sereno 24 16 60 1017 10 N 3.7
Oggi h: 10:50 sereno Sereno 23 16 64 1018 10 N 1.8
Oggi h: 10:20 sereno Sereno 23 16 64 1018 10 N 1.8
Oggi h: 09:50 sereno Sereno 22 15 64 1018 10 N 1.8
Oggi h: 09:20 sereno Sereno 20 15 72 1018 10 N 3.7
Oggi h: 08:50 poco_nuvoloso Poco Nuvoloso 19 14 72 1018 10 N 3.7
Oggi h: 08:20 poco_nuvoloso Poco Nuvoloso 18 15 82 1018 10 N 3.7
Oggi h: 07:50 poco_nuvoloso Poco Nuvoloso 17 15 88 1018 10 N 3.7
Oggi h: 07:20 sereno Sereno 16 15 93 1018 10 N 1.8
Oggi h: 06:50 sereno Sereno 14 14 100 1018 10 N 3.7
Oggi h: 06:20 sereno Sereno 14 13 93 1018 10 N 1.8
Oggi h: 05:50 sereno Sereno 15 14 93 1018 10 N 1.8
Oggi h: 05:20 sereno Sereno 15 14 93 1018 10 N 1.8
Oggi h: 04:50 poco_nuvoloso Poco Nuvoloso 15 14 93 1018 10 N 1.8
Oggi h: 04:20 sereno Sereno 15 14 93 1018 10 N 3.7
Oggi h: 03:50 sereno Sereno 16 14 87 1018 10 N 3.7
Oggi h: 03:20 sereno Sereno 16 14 87 1018 10 N 3.7
Oggi h: 02:50 poco_nuvoloso Poco Nuvoloso 17 14 82 1019 10 N 5.5
Oggi h: 02:20 poco_nuvoloso Poco Nuvoloso 17 14 82 1019 10 N 3.7
Oggi h: 01:50 poco_nuvoloso Poco Nuvoloso 18 15 82 1019 10 N 5.5
Oggi h: 01:20 molto_nuvoloso Molto Nuvoloso 18 15 82 1019 10 NO 9.3
Oggi h: 00:50 poco_nuvoloso Poco Nuvoloso 18 15 82 1019 10 NO 7.4
Oggi h: 00:20 molto_nuvoloso Molto Nuvoloso 18 15 82 1019 10 N/NO 11.1
Ieri h: 23:50 molto_nuvoloso Molto Nuvoloso 18 15 82 1019 10 N 1.8
Ieri h: 23:20 poco_nuvoloso Poco Nuvoloso 19 15 77 1019 10 N/NO 9.3
Ieri h: 22:50 molto_nuvoloso Molto Nuvoloso 19 15 77 1019 10 N/NO 7.4
Ieri h: 22:20 poco_nuvoloso Poco Nuvoloso 21 15 68 1019 10 N 1.8
Ieri h: 21:50 sereno Sereno 21 14 64 1019 10 N 3.7
Ieri h: 21:20 sereno Sereno 23 13 53 1018 10 N 3.7
Ieri h: 20:50 sereno Sereno 23 14 56 1018 10 NO 7.4
Ieri h: 20:20 sereno Sereno 25 13 47 1018 10 N/NO 9.3
Ieri h: 19:50 sereno Sereno 26 14 47 1018 10 O/NO 11.1
Ieri h: 19:20 sereno Sereno 27 13 42 1018 10 O 13
Ieri h: 18:50 sereno Sereno 27 14 44 1018 10 O 13